Find Starlink 32726

NORAD ID: 62446 Int'l Des: 2024-251 Owner: SPXS Country: US Constellation: starlink operational
LEOCIRCULAR

实时位置

正在加载3D地球...

关于 Starlink 32726

正在加载描述...

即将过境

Passes for default location (London). Set your location on the main map for personalized predictions.

高度历史

Loading altitude history...

两行轨道根数

1 62446U 24251Q 26122.33654161 .00014535 00000-0 50191-3 0 9995
2 62446 53.1588 85.9991 0001235 76.2345 283.8793 15.30200385 75855
Epoch: May 2, 2026 • Age: 15 hours

当前状态

高度 492.3 km
速度 7.62 km/s
星下点 -47.58°S, 107.9°E
发射日期 Dec 29, 2024
运行时间 1.3 years
类型 internet

技术详情

分类 Payload
质量 730.00 kg
干质量 700.00 kg
总质量 730.00 kg
长度 0.30 m
直径 4.10 m
跨度 29.00 m
形状 Box + pan
制造商 SPXS
平台类型 Starlink V2M
阶段状态 In Orbit
所有者/国家 SPXS/US

Most Searched